RYR10XM LERS-EHEH

Flight info

Callsign RYR10XM
Flight time N/A
Altitude 30000
Route ARBEK T113 RUTIP DCT OKABI/N0432F340 DCT TOU DCT ADABI DCT BOKNO UN858 VANAD UN874 ARSAF DCT EGOZE DCT CMB DCT VEKIN DCT ADUTO N873 FERDI Y18 DENUT
Aircraft B738/M-SDE2E3FGHIRWXY/LB1

Departure

Time 2026-04-27 16:16
Airport Reus Airport (LERS)

Arrival

Time N/A
Airport Eindhoven Airport (EHEH)
Time Latitude Longitude Altitude Speed Heading
2026-04-27 16:03 41.14662 1.15556 238 ft 0 kts 344°
2026-04-27 16:08 41.14650 1.15561 238 ft 4 kts 341°
2026-04-27 16:08 41.14624 1.15574 238 ft 4 kts 334°
2026-04-27 16:08 41.14601 1.15591 238 ft 4 kts 326°
2026-04-27 16:09 41.14583 1.15608 238 ft 1 kts 322°
2026-04-27 16:09 41.14580 1.15611 238 ft 0 kts 322°
2026-04-27 16:11 41.14583 1.15596 238 ft 4 kts 278°
2026-04-27 16:12 41.14526 1.15567 238 ft 6 kts 157°
2026-04-27 16:12 41.14523 1.15568 238 ft 0 kts 158°
2026-04-27 16:13 41.14522 1.15568 238 ft 0 kts 158°
2026-04-27 16:14 41.14482 1.15592 238 ft 0 kts 155°
2026-04-27 16:15 41.14456 1.15608 238 ft 9 kts 154°
2026-04-27 16:16 41.14557 1.16091 238 ft 92 kts 68°
2026-04-27 16:16 41.15335 1.18722 1075 ft 173 kts 70°
2026-04-27 16:17 41.16244 1.21857 2726 ft 205 kts 72°
2026-04-27 16:17 41.17404 1.25854 3270 ft 257 kts 70°
2026-04-27 16:18 41.18749 1.30401 4979 ft 268 kts 70°
2026-04-27 16:18 41.20609 1.34625 6797 ft 274 kts 33°
2026-04-27 16:19 41.22415 1.35414 7660 ft 278 kts
2026-04-27 16:19 41.24340 1.35099 8472 ft 283 kts 341°
2026-04-27 16:20 41.29941 1.31145 9769 ft 339 kts 329°
2026-04-27 16:20 41.32063 1.29537 9985 ft 362 kts 330°
2026-04-27 16:20 41.36561 1.26172 11198 ft 375 kts 330°
2026-04-27 16:21 41.38851 1.24476 11933 ft 378 kts 330°
2026-04-27 16:21 41.45834 1.19327 14046 ft 388 kts 329°
2026-04-27 16:22 41.48176 1.17600 14616 ft 392 kts 330°
2026-04-27 16:22 41.53148 1.14284 15770 ft 403 kts 343°
2026-04-27 16:22 41.55943 1.13745 16368 ft 410 kts 358°
2026-04-27 16:23 41.58784 1.14229 16948 ft 416 kts 12°
2026-04-27 16:23 41.64399 1.16133 17954 ft 426 kts 13°
2026-04-27 16:23 41.67334 1.17139 18526 ft 429 kts 13°
2026-04-27 16:24 41.70248 1.18124 18995 ft 433 kts 13°
2026-04-27 16:24 41.76095 1.20063 20112 ft 435 kts 12°
2026-04-27 16:25 41.82000 1.21997 21156 ft 438 kts 12°
2026-04-27 16:25 41.87924 1.23937 22054 ft 444 kts 12°
2026-04-27 16:26 41.94008 1.25935 22959 ft 450 kts 12°
2026-04-27 16:26 42.00082 1.27934 23763 ft 455 kts 12°
2026-04-27 16:27 42.06274 1.29977 24369 ft 461 kts 13°
2026-04-27 16:27 42.15669 1.33081 25395 ft 466 kts 12°
2026-04-27 16:28 42.22018 1.35170 26074 ft 471 kts 13°
2026-04-27 16:28 42.28417 1.37278 26628 ft 476 kts 13°
2026-04-27 16:29 42.38125 1.40488 27477 ft 481 kts 13°
2026-04-27 16:30 42.44651 1.42653 28021 ft 484 kts 13°
2026-04-27 16:30 42.51166 1.44834 28832 ft 481 kts 13°
2026-04-27 16:31 42.60913 1.47900 30160 ft 477 kts
2026-04-27 16:31 42.67500 1.47646 30833 ft 473 kts 352°
2026-04-27 16:32 42.74015 1.46499 31541 ft 472 kts 351°
2026-04-27 16:32 42.77267 1.45927 31896 ft 471 kts 352°
2026-04-27 16:33 42.83754 1.44833 32580 ft 469 kts 352°
2026-04-27 16:33 42.86989 1.44303 32864 ft 468 kts 352°
2026-04-27 16:33 42.90226 1.43779 33189 ft 468 kts 352°
2026-04-27 16:33 42.93411 1.43264 33525 ft 467 kts 352°
2026-04-27 16:34 42.96674 1.42736 33867 ft 466 kts 352°
2026-04-27 16:34 42.99897 1.42214 34129 ft 466 kts 352°
2026-04-27 16:34 43.06395 1.41157 34107 ft 473 kts 351°
2026-04-27 16:35 43.12869 1.40102 34095 ft 470 kts 351°
2026-04-27 16:36 43.22633 1.38505 34087 ft 467 kts 351°
2026-04-27 16:36 43.29083 1.37448 34087 ft 467 kts 351°
2026-04-27 16:37 43.35519 1.36390 34076 ft 466 kts 351°
2026-04-27 16:37 43.41975 1.35326 34077 ft 467 kts 351°
2026-04-27 16:38 43.48384 1.34269 34075 ft 467 kts 351°
2026-04-27 16:38 43.54837 1.33201 34064 ft 468 kts 351°
2026-04-27 16:39 43.61312 1.32128 34073 ft 468 kts 351°
2026-04-27 16:39 43.67785 1.31051 34072 ft 469 kts 350°
2026-04-27 16:40 43.74216 1.29591 34075 ft 468 kts 346°
2026-04-27 16:40 43.80591 1.27873 34072 ft 468 kts 346°
2026-04-27 16:41 43.87013 1.26145 34068 ft 468 kts 346°
2026-04-27 16:41 43.93416 1.24463 34065 ft 468 kts 346°
2026-04-27 16:42 43.99820 1.22800 34065 ft 468 kts 346°
2026-04-27 16:42 44.06222 1.21138 34070 ft 468 kts 346°
2026-04-27 16:43 44.12623 1.19471 34065 ft 467 kts 346°
2026-04-27 16:43 44.19011 1.17802 34065 ft 467 kts 346°
2026-04-27 16:44 44.25401 1.16129 34078 ft 467 kts 345°
2026-04-27 16:44 44.31785 1.14454 34068 ft 467 kts 345°
2026-04-27 16:45 44.38162 1.12776 34064 ft 467 kts 345°
2026-04-27 16:45 44.44549 1.11092 34083 ft 467 kts 345°
2026-04-27 16:46 44.49905 1.09678 34079 ft 467 kts 345°
2026-04-27 16:46 44.56292 1.07987 34074 ft 468 kts 345°
2026-04-27 16:47 44.62670 1.06295 34085 ft 467 kts 345°
2026-04-27 16:47 44.69068 1.04595 34072 ft 467 kts 345°
2026-04-27 16:48 44.75460 1.02892 34074 ft 467 kts 345°
2026-04-27 16:48 44.81797 1.01199 34069 ft 467 kts 345°
2026-04-27 16:49 44.91361 0.98637 34076 ft 466 kts 345°
2026-04-27 16:49 44.97735 0.96926 34065 ft 466 kts 345°
2026-04-27 16:50 45.04103 0.95212 34075 ft 466 kts 345°
2026-04-27 16:50 45.10478 0.93492 34051 ft 466 kts 345°
2026-04-27 16:51 45.16856 0.91767 34047 ft 466 kts 345°
2026-04-27 16:51 45.23232 0.90039 34051 ft 467 kts 345°
2026-04-27 16:52 45.29613 0.88305 34049 ft 467 kts 345°
2026-04-27 16:52 45.35998 0.86567 34057 ft 467 kts 345°
2026-04-27 16:53 45.42387 0.84824 34067 ft 468 kts 345°
2026-04-27 16:53 45.48781 0.83075 34070 ft 468 kts 345°